When you browse on this site, cookies collect data to enhance your experience and personalize the content and advertising you see.
Visit our Privacy Policy to learn more. By continuing to use the site, you agree to this use of cookies and data.
  • en France
  • Liste des pays
  • À 7 jours
  • Température de l'eau
  • Carte satellitaire
  • Carte météo
  • Widgets météo
  • user-avatar
    Se connecter

    Météo par heure à Abbévillers

    Ce jour, 23 Avril, Mardi

    Heure Température Précipitation Vent Pression Humidité
    00:00 +12°C° 0 mm 1 m/s 700 mmHg 80%
    01:00 +12°C° 0 mm 1 m/s 700 mmHg 79%
    02:00 +12°C° 0 mm 1 m/s 700 mmHg 78%
    03:00 +12°C° 0 mm 1 m/s 700 mmHg 76%
    04:00 +12°C° 0 mm 1 m/s 700 mmHg 77%
    05:00 +12°C° 0 mm 1 m/s 700 mmHg 78%
    06:00 +12°C° 0 mm 0 m/s 700 mmHg 77%
    07:00 +15°C° 0 mm 1 m/s 700 mmHg 72%
    08:00 +16°C° 0 mm 1 m/s 700 mmHg 68%
    09:00 +18°C° 0 mm 1 m/s 700 mmHg 64%
    10:00 +19°C° 0 mm 1 m/s 700 mmHg 60%
    11:00 +21°C° 0 mm 1 m/s 700 mmHg 56%
    12:00 +22°C° 0 mm 1 m/s 700 mmHg 52%
    13:00 +22°C° 0.5 mm 1 m/s 700 mmHg 55%
    14:00 +21°C° 0.5 mm 1 m/s 700 mmHg 59%
    15:00 +21°C° 0.5 mm 1 m/s 700 mmHg 63%
    16:00 +19°C° 0.8 mm 1 m/s 700 mmHg 69%
    17:00 +18°C° 0.8 mm 1 m/s 700 mmHg 75%
    18:00 +15°C° 0.8 mm 1 m/s 700 mmHg 82%
    19:00 +15°C° 1.1 mm 1 m/s 700 mmHg 84%
    20:00 +14°C° 1.1 mm 1 m/s 700 mmHg 87%
    21:00 +13°C° 1.1 mm 1 m/s 701 mmHg 89%
    22:00 +13°C° 0.4 mm 1 m/s 701 mmHg 91%
    23:00 +12°C° 0.4 mm 1 m/s 701 mmHg 93%

    Demain, 24 Avril, Mercredi

    Heure Température Précipitation Vent Pression Humidité
    00:00 +12°C° 0.4 mm 2 m/s 702 mmHg 95%
    01:00 +11°C° 0 mm 1 m/s 702 mmHg 95%
    02:00 +11°C° 0 mm 1 m/s 702 mmHg 95%
    03:00 +10°C° 0 mm 1 m/s 702 mmHg 94%
    04:00 +11°C° 0 mm 1 m/s 702 mmHg 93%
    05:00 +12°C° 0 mm 1 m/s 702 mmHg 92%
    06:00 +12°C° 0 mm 1 m/s 703 mmHg 90%
    07:00 +14°C° 0 mm 1 m/s 703 mmHg 82%
    08:00 +16°C° 0 mm 2 m/s 703 mmHg 74%
    09:00 +18°C° 0 mm 2 m/s 704 mmHg 66%
    10:00 +18°C° 0.1 mm 2 m/s 704 mmHg 65%
    11:00 +19°C° 0.1 mm 2 m/s 704 mmHg 63%
    12:00 +20°C° 0.1 mm 2 m/s 704 mmHg 61%
    13:00 +17°C° 1.2 mm 3 m/s 704 mmHg 72%
    14:00 +14°C° 1.2 mm 4 m/s 704 mmHg 82%
    15:00 +12°C° 1.2 mm 5 m/s 703 mmHg 92%
    16:00 +11°C° 1.3 mm 4 m/s 704 mmHg 90%
    17:00 +11°C° 1.3 mm 3 m/s 705 mmHg 88%
    18:00 +12°C° 1.3 mm 2 m/s 706 mmHg 85%
    19:00 +9°C° 0 mm 2 m/s 706 mmHg 85%
    20:00 +9°C° 0 mm 1 m/s 706 mmHg 86%
    21:00 +8°C° 0 mm 1 m/s 707 mmHg 86%
    22:00 +8°C° 0 mm 1 m/s 707 mmHg 87%
    23:00 +8°C° 0 mm 1 m/s 707 mmHg 88%

    Après-demain, 25 Avril, Jeudi

    Heure Température Précipitation Vent Pression Humidité
    00:00 +7°C° 0 mm 1 m/s 707 mmHg 89%
    01:00 +7°C° 0 mm 1 m/s 707 mmHg 89%
    02:00 +7°C° 0 mm 1 m/s 707 mmHg 89%
    03:00 +7°C° 0 mm 1 m/s 707 mmHg 90%
    04:00 +8°C° 0 mm 1 m/s 707 mmHg 88%
    05:00 +9°C° 0 mm 1 m/s 708 mmHg 87%
    06:00 +9°C° 0 mm 1 m/s 708 mmHg 85%
    07:00 +12°C° 0 mm 1 m/s 708 mmHg 76%
    08:00 +14°C° 0 mm 1 m/s 708 mmHg 67%
    09:00 +18°C° 0 mm 1 m/s 709 mmHg 58%
    10:00 +19°C° 0 mm 1 m/s 709 mmHg 52%
    11:00 +21°C° 0 mm 1 m/s 709 mmHg 46%
    12:00 +23°C° 0 mm 1 m/s 709 mmHg 40%
    13:00 +21°C° 0 mm 2 m/s 709 mmHg 44%
    14:00 +20°C° 0 mm 3 m/s 709 mmHg 49%
    15:00 +19°C° 0 mm 3 m/s 708 mmHg 53%
    16:00 +18°C° 0 mm 3 m/s 708 mmHg 60%
    17:00 +16°C° 0 mm 2 m/s 708 mmHg 68%
    18:00 +15°C° 0 mm 1 m/s 708 mmHg 76%
    19:00 +13°C° 0.1 mm 2 m/s 709 mmHg 81%
    20:00 +12°C° 0.1 mm 2 m/s 709 mmHg 86%
    21:00 +10°C° 0.1 mm 3 m/s 710 mmHg 92%
    22:00 +9°C° 0.1 mm 3 m/s 710 mmHg 92%
    23:00 +7°C° 0.1 mm 4 m/s 710 mmHg 93%

    26 Avril, Vendredi

    Heure Température Précipitation Vent Pression Humidité
    00:00 +6°C° 0.1 mm 4 m/s 711 mmHg 93%
    01:00 +5°C° 0.4 mm 3 m/s 711 mmHg 93%
    02:00 +5°C° 0.4 mm 3 m/s 711 mmHg 93%
    03:00 +6°C° 0.4 mm 2 m/s 711 mmHg 93%
    04:00 +6°C° 0.2 mm 2 m/s 711 mmHg 92%
    05:00 +6°C° 0.2 mm 2 m/s 711 mmHg 92%
    06:00 +6°C° 0.2 mm 2 m/s 711 mmHg 91%
    07:00 +8°C° 0.4 mm 1 m/s 712 mmHg 89%
    08:00 +8°C° 0.4 mm 1 m/s 712 mmHg 88%
    09:00 +8°C° 0.4 mm 0 m/s 713 mmHg 87%
    10:00 +9°C° 0 mm 1 m/s 713 mmHg 82%
    11:00 +9°C° 0 mm 2 m/s 713 mmHg 77%
    12:00 +10°C° 0 mm 2 m/s 714 mmHg 72%
    13:00 +12°C° 0.1 mm 2 m/s 714 mmHg 69%
    14:00 +12°C° 0.1 mm 2 m/s 714 mmHg 65%
    15:00 +12°C° 0.1 mm 3 m/s 714 mmHg 62%
    16:00 +11°C° 0.5 mm 3 m/s 714 mmHg 71%
    17:00 +9°C° 0.5 mm 3 m/s 714 mmHg 80%
    18:00 +8°C° 0.5 mm 3 m/s 714 mmHg 89%
    19:00 +8°C° 0.5 mm 3 m/s 714 mmHg 91%
    20:00 +7°C° 0.5 mm 3 m/s 715 mmHg 93%
    21:00 +7°C° 0.5 mm 3 m/s 715 mmHg 95%
    22:00 +6°C° 0.6 mm 4 m/s 715 mmHg 95%
    23:00 +6°C° 0.6 mm 4 m/s 715 mmHg 95%

    27 Avril, Samedi

    Heure Température Précipitation Vent Pression Humidité
    00:00 +6°C° 0.6 mm 5 m/s 716 mmHg 95%
    01:00 +6°C° 0.5 mm 5 m/s 716 mmHg 95%
    02:00 +6°C° 0.5 mm 5 m/s 716 mmHg 95%
    03:00 +6°C° 0.5 mm 4 m/s 716 mmHg 95%
    04:00 +5°C° 0.6 mm 4 m/s 716 mmHg 95%
    05:00 +5°C° 0.6 mm 4 m/s 717 mmHg 95%
    06:00 +5°C° 0.6 mm 4 m/s 717 mmHg 95%
    07:00 +5°C° 0.2 mm 5 m/s 717 mmHg 91%
    08:00 +6°C° 0.2 mm 5 m/s 717 mmHg 87%
    09:00 +6°C° 0.2 mm 5 m/s 717 mmHg 83%
    10:00 +7°C° 0.1 mm 5 m/s 717 mmHg 79%
    11:00 +8°C° 0.1 mm 5 m/s 717 mmHg 75%
    12:00 +8°C° 0.1 mm 5 m/s 716 mmHg 70%
    13:00 +9°C° 0.2 mm 6 m/s 716 mmHg 72%
    14:00 +9°C° 0.2 mm 6 m/s 716 mmHg 73%
    15:00 +10°C° 0.2 mm 7 m/s 715 mmHg 75%
    16:00 +9°C° 0.8 mm 7 m/s 715 mmHg 81%
    17:00 +8°C° 0.8 mm 6 m/s 715 mmHg 86%
    18:00 +5°C° 0.8 mm 6 m/s 715 mmHg 92%
    19:00 +5°C° 0.6 mm 6 m/s 716 mmHg 93%
    20:00 +5°C° 0.6 mm 6 m/s 716 mmHg 94%
    21:00 +4°C° 0.6 mm 6 m/s 717 mmHg 95%
    22:00 +5°C° 0.7 mm 5 m/s 717 mmHg 95%
    23:00 +5°C° 0.7 mm 5 m/s 717 mmHg 96%

    28 Avril, Dimanche

    Heure Température Précipitation Vent Pression Humidité
    00:00 +5°C° 0.7 mm 5 m/s 718 mmHg 96%
    01:00 +5°C° 0.6 mm 5 m/s 718 mmHg 96%
    02:00 +3°C° 0.6 mm 5 m/s 718 mmHg 96%
    03:00 +3°C° 0.6 mm 5 m/s 719 mmHg 97%
    04:00 +4°C° 0.3 mm 4 m/s 719 mmHg 96%
    05:00 +4°C° 0.3 mm 4 m/s 719 mmHg 96%
    06:00 +4°C° 0.3 mm 3 m/s 719 mmHg 96%
    07:00 +4°C° 0 mm 3 m/s 719 mmHg 94%
    08:00 +5°C° 0 mm 3 m/s 719 mmHg 92%
    09:00 +6°C° 0 mm 2 m/s 719 mmHg 90%
    10:00 +7°C° 0 mm 2 m/s 719 mmHg 85%
    11:00 +8°C° 0 mm 2 m/s 719 mmHg 79%
    12:00 +9°C° 0 mm 2 m/s 719 mmHg 73%
    13:00 +10°C° 0 mm 2 m/s 719 mmHg 69%
    14:00 +10°C° 0 mm 2 m/s 718 mmHg 65%
    15:00 +12°C° 0 mm 2 m/s 718 mmHg 62%
    16:00 +10°C° 0 mm 2 m/s 718 mmHg 68%
    17:00 +10°C° 0 mm 1 m/s 718 mmHg 75%
    18:00 +9°C° 0 mm 1 m/s 717 mmHg 82%
    19:00 +7°C° 0 mm 1 m/s 718 mmHg 85%
    20:00 +6°C° 0 mm 1 m/s 718 mmHg 89%
    21:00 +5°C° 0 mm 1 m/s 718 mmHg 92%
    22:00 +4°C° 0 mm 1 m/s 717 mmHg 93%
    23:00 +4°C° 0 mm 1 m/s 717 mmHg 93%
    Voir plus